GW6074 Weather Reports


time (UTC)temp
F
wind
direction
speed
knots
gust
knots
rain 1hr
in
rain 24hr
in
rain mn
in
humidity
%
barometer
mb
20260906122725 71 37 3.5 5.2 0.00 0.00 0.00 94
20260906122220 71 54 3.5 5.2 0.00 0.00 0.00 94
20260906121717 71 42 5.2 7.0 0.00 0.00 0.00 94
20260906121213 71 43 1.7 6.1 0.00 0.00 0.00 94
20260906120708 71 48 4.3 6.1 0.00 0.00 0.00 94
20260906120205 71 37 4.3 7.0 0.00 0.00 0.00 94
20260906115659 71 27 5.2 7.0 0.00 0.00 0.00 94
20260906115155 71 51 3.5 7.0 0.00 0.00 0.00 94
20260906114653 71 31 7.0 7.8 0.00 0.00 0.00 94
20260906114149 71 7 5.2 6.1 0.00 0.00 0.00 93
20260906113644 71 38 2.6 6.1 0.00 0.00 0.00 94
20260906113143 71 33 3.5 5.2 0.00 0.00 0.00 93
20260906112642 71 68 3.5 5.2 0.00 0.00 0.00 93
20260906112140 71 87 2.6 5.2 0.00 0.00 0.00 94
20260906111639 71 31 3.5 7.8 0.00 0.00 0.00 94
20260906111134 71 44 3.5 3.5 0.00 0.00 0.00 94
20260906110629 71 39 3.5 7.0 0.00 0.00 0.00 94
20260906110129 71 62 4.3 5.2 0.00 0.00 0.00 94
20260906105623 71 58 4.3 6.1 0.00 0.00 0.00 94
20260906105120 71 47 3.5 6.1 0.00 0.00 0.00 95
20260906104619 71 40 3.5 5.2 0.00 0.00 0.00 95
20260906104113 71 54 3.5 5.2 0.00 0.00 0.00 96
20260906103612 71 56 1.7 5.2 0.00 0.00 0.00 96
20260906103108 71 48 3.5 5.2 0.00 0.00 0.00 96
20260906102607 71 82 0.9 5.2 0.00 0.00 0.00 96
20260906102102 71 51 3.5 6.1 0.00 0.00 0.00 96
20260906101556 71 41 3.5 3.5 0.00 0.00 0.00 96
20260906101046 71 88 2.6 5.2 0.00 0.00 0.00 96
20260906100542 71 48 2.6 6.1 0.00 0.00 0.00 96
20260906100041 71 58 3.5 6.1 0.00 0.00 0.00 96
20260906095536 71 63 1.7 3.5 0.00 0.00 0.00 96
20260906095032 71 68 2.6 6.1 0.00 0.00 0.00 96
20260906094531 71 60 1.7 6.1 0.00 0.00 0.00 96
20260906094027 71 77 2.6 7.0 0.00 0.00 0.00 96
20260906093522 71 50 5.2 7.0 0.00 0.00 0.00 96
20260906093023 70 45 7.8 9.6 0.00 0.00 0.00 96
20260906092522 70 32 7.0 11.3 0.00 0.00 0.00 96
20260906092018 70 58 5.2 9.6 0.00 0.00 0.00 96
20260906091514 70 46 5.2 7.8 0.00 0.00 0.00 96
20260906091010 70 33 4.3 6.1 0.00 0.00 0.00 96
20260906090505 70 33 7.0 8.7 0.00 0.00 0.00 96
20260906090004 70 60 7.0 9.6 0.00 0.00 0.00 96
20260906085504 70 59 6.1 8.7 0.00 0.00 0.00 96
20260906085003 70 43 7.0 7.8 0.00 0.00 0.00 96
20260906084458 70 47 6.1 11.3 0.00 0.00 0.00 96
20260906083956 70 42 5.2 7.0 0.00 0.00 0.00 96
20260906083453 70 38 4.3 8.7 0.00 0.00 0.00 96
20260906082952 70 35 5.2 9.6 0.00 0.00 0.00 95
20260906082447 70 29 5.2 7.8 0.00 0.00 0.00 95
20260906081943 70 33 7.0 11.3 0.00 0.00 0.00 95
20260906081438 70 74 6.1 7.8 0.00 0.00 0.00 95
20260906080934 70 40 6.1 7.0 0.00 0.00 0.00 95
20260906080431 70 23 7.8 9.6 0.00 0.00 0.00 94
20260906075930 70 41 7.0 7.8 0.00 0.00 0.00 94
20260906075425 70 12 7.8 12.2 0.00 0.00 0.00 94
20260906074921 70 26 7.8 11.3 0.00 0.00 0.00 94
20260906074420 70 39 5.2 9.6 0.00 0.00 0.00 94
20260906073919 70 19 5.2 11.3 0.00 0.00 0.00 93
20260906073414 70 45 3.5 8.7 0.00 0.00 0.00 93
20260906072911 70 32 5.2 9.6 0.00 0.00 0.00 93
20260906072406 70 38 5.2 12.2 0.00 0.00 0.00 93
20260906071902 70 33 5.2 7.8 0.00 0.00 0.00 93
20260906071357 70 48 5.2 7.0 0.00 0.00 0.00 93
20260906070853 70 23 5.2 11.3 0.00 0.00 0.00 93
20260906070348 70 28 7.0 8.7 0.00 0.00 0.00 93
20260906065843 70 42 6.1 8.7 0.00 0.00 0.00 93
20260906065338 70 16 5.2 7.8 0.00 0.00 0.00 92
20260906064834 71 36 5.2 8.7 0.00 0.00 0.00 92
20260906064330 71 80 5.2 8.7 0.00 0.00 0.00 92
20260906063824 71 16 5.2 7.0 0.00 0.00 0.00 91
20260906063320 71 37 7.0 9.6 0.00 0.00 0.00 91
20260906062815 71 66 6.1 8.7 0.00 0.00 0.00 91
20260906062314 71 61 6.1 7.8 0.00 0.00 0.00 91
20260906061809 72 50 5.2 8.7 0.00 0.00 0.00 90
20260906061306 72 66 5.2 8.7 0.00 0.00 0.00 90
20260906060801 72 63 6.1 7.8 0.00 0.00 0.00 90
20260906060258 72 59 6.1 9.6 0.00 0.00 0.00 90
20260906055754 72 37 6.1 7.8 0.00 0.00 0.00 90
20260906055249 72 32 3.5 6.1 0.00 0.00 0.00 89
20260906054744 73 51 3.5 6.1 0.00 0.00 0.00 89
20260906054239 73 38 3.5 7.0 0.00 0.00 0.00 89
20260906053736 73 38 4.3 5.2 0.00 0.00 0.00 88
20260906053232 74 36 5.2 7.0 0.00 0.00 0.00 86
20260906052726 74 31 5.2 7.8 0.00 0.00 0.00 85
20260906052223 74 104 3.5 7.8 0.00 0.00 0.00 85
20260906051720 74 60 4.3 7.0 0.00 0.00 0.00 84
20260906051219 74 62 2.6 6.1 0.00 0.00 0.00 84
20260906050714 75 49 3.5 6.1 0.00 0.00 0.00 84
20260906050209 75 61 1.7 5.2 0.00 0.00 0.00 83
20260906045708 75 42 3.5 7.0 0.00 0.00 0.00 83
20260906045203 75 70 4.3 7.8 0.00 0.00 0.00 83
20260906044659 75 45 8.7 11.3 0.00 0.00 0.00 83
20260906044154 76 55 7.0 8.7 0.00 0.00 0.00 83
20260906043650 76 46 6.1 7.8 0.00 0.00 0.00 83
20260906043145 76 27 5.2 7.8 0.00 0.00 0.00 83
20260906042645 76 38 7.0 9.6 0.00 0.00 0.00 83
20260906042144 76 33 5.2 12.2 0.00 0.00 0.00 82
20260906041641 77 53 10.4 12.2 0.00 0.00 0.00 82
20260906041135 77 79 7.8 8.7 0.00 0.00 0.00 82
20260906040631 77 26 6.1 8.7 0.00 0.00 0.00 82
20260906040126 77 36 4.3 8.7 0.00 0.00 0.00 83
20260906035621 77 86 7.0 9.6 0.00 0.00 0.00 84
20260906035117 77 52 7.8 9.6 0.00 0.00 0.00 84
20260906034611 78 32 6.1 11.3 0.00 0.00 0.00 84
20260906034106 78 56 5.2 9.6 0.00 0.00 0.00 83
20260906033601 78 34 6.1 8.7 0.00 0.00 0.00 83
20260906033057 78 50 6.1 11.3 0.00 0.00 0.00 82
20260906032554 79 58 7.0 12.2 0.00 0.00 0.00 82
20260906032053 79 52 7.8 13.9 0.00 0.00 0.00 82
20260906031549 79 44 5.2 11.3 0.00 0.00 0.00 82
20260906031044 79 70 8.7 12.2 0.00 0.00 0.00 82
20260906030543 80 54 6.1 12.2 0.00 0.00 0.00 82
20260906030043 80 16 7.8 13.0 0.00 0.00 0.00 82
20260906025543 80 34 8.7 13.9 0.00 0.00 0.00 81
20260906025042 80 45 10.4 13.9 0.00 0.00 0.00 81
20260906024538 81 42 6.1 12.2 0.00 0.00 0.00 80
20260906024037 81 63 11.3 12.2 0.00 0.00 0.00 80
20260906023533 82 39 7.8 12.2 0.00 0.00 0.00 80
20260906023028 82 30 11.3 13.9 0.00 0.00 0.00 80
20260906022524 82 51 7.8 13.9 0.00 0.00 0.00 79
20260906022019 82 43 9.6 13.0 0.00 0.00 0.00 79
20260906021515 82 40 7.0 9.6 0.00 0.00 0.00 79
20260906021014 83 31 5.2 7.8 0.00 0.00 0.00 79
20260906020513 83 54 5.2 7.0 0.00 0.00 0.00 78
20260906020013 83 25 6.1 7.8 0.00 0.00 0.00 78
20260906015512 83 22 4.3 7.8 0.00 0.00 0.00 78
20260906015012 83 39 3.5 7.0 0.00 0.00 0.00 78
20260906014507 84 33 5.2 7.0 0.00 0.00 0.00 77
20260906014003 84 43 3.5 6.1 0.00 0.00 0.00 77
20260906013458 84 31 3.5 6.1 0.00 0.00 0.00 76
20260906012954 84 37 5.2 6.1 0.00 0.00 0.00 76
20260906012449 85 57 1.7 3.5 0.00 0.00 0.00 76
20260906011948 85 46 2.6 2.6 0.00 0.00 0.00 75
20260906011444 85 54 3.5 3.5 0.00 0.00 0.00 75
20260906010939 85 46 2.6 5.2 0.00 0.00 0.00 75
20260906010434 85 26 3.5 6.1 0.00 0.00 0.00 74
20260906005930 85 41 4.3 5.2 0.00 0.00 0.00 73
20260906005429 86 42 3.5 7.0 0.00 0.00 0.00 73
20260906004927 86 31 4.3 5.2 0.00 0.00 0.00 72
20260906004422 87 35 4.3 6.1 0.00 0.00 0.00 71
20260906003918 87 22 5.2 6.1 0.00 0.00 0.00 70
20260906003413 87 47 3.5 7.0 0.00 0.00 0.00 70
20260906002908 87 43 4.3 5.2 0.00 0.00 0.00 69
20260906002408 88 71 4.3 6.1 0.00 0.00 0.00 69
20260906001903 88 40 2.6 5.2 0.00 0.00 0.00 68
20260906001359 88 41 4.3 7.0 0.00 0.00 0.00 67
20260906000900 89 38 3.5 7.0 0.00 0.00 0.00 66
20260906000359 89 22 6.1 7.8 0.00 0.00 0.00 65
20260905235854 89 16 6.1 7.8 0.00 0.00 0.00 64
20260905235349 90 22 7.8 8.7 0.00 0.00 0.00 63
20260905234844 90 13 7.8 8.7 0.00 0.00 0.00 62
20260905234339 91 6 6.1 7.8 0.00 0.00 0.00 61
20260905233834 91 12 6.1 7.8 0.00 0.00 0.00 59
20260905233329 91 2 7.8 8.7 0.00 0.00 0.00 59
20260905232828 92 2 7.8 9.6 0.00 0.00 0.00 58
20260905232325 92 3 9.6 11.3 0.00 0.00 0.00 57
20260905231820 92 345 9.6 11.3 0.00 0.00 0.00 58
20260905231315 92 345 9.6 12.2 0.00 0.00 0.00 57
20260905230811 93 2 10.4 13.9 0.00 0.00 0.00 56
20260905230309 93 341 11.3 13.0 0.00 0.00 0.00 56
20260905225809 93 2 7.0 9.6 0.00 0.00 0.00 56
20260905225306 93 349 11.3 13.0 0.00 0.00 0.00 55
20260905224803 93 340 9.6 11.3 0.00 0.00 0.00 55
20260905224259 93 1 11.3 13.0 0.00 0.00 0.00 55
20260905223755 93 23 11.3 13.0 0.00 0.00 0.00 56
20260905223252 94 352 10.4 13.9 0.00 0.00 0.00 54
20260905222747 94 11 8.7 9.6 0.00 0.00 0.00 54
20260905222246 94 17 7.8 9.6 0.00 0.00 0.00 55
20260905221742 94 346 7.8 9.6 0.00 0.00 0.00 54
20260905221239 94 7 10.4 13.0 0.00 0.00 0.00 53
20260905220734 94 24 9.6 12.2 0.00 0.00 0.00 53
20260905220230 94 22 11.3 14.8 0.00 0.00 0.00 52
20260905215729 94 22 9.6 13.9 0.00 0.00 0.00 53
20260905215225 94 28 10.4 13.0 0.00 0.00 0.00 53
20260905214721 94 8 10.4 13.9 0.00 0.00 0.00 53
20260905214216 94 329 10.4 13.9 0.00 0.00 0.00 51
20260905213712 95 353 10.4 13.9 0.00 0.00 0.00 48
20260905213208 95 356 9.6 12.2 0.00 0.00 0.00 47
20260905212702 95 353 9.6 12.2 0.00 0.00 0.00 47
20260905212201 95 342 4.3 9.6 0.00 0.00 0.00 48
20260905211656 95 345 7.8 8.7 0.00 0.00 0.00 48
20260905211152 95 347 8.7 11.3 0.00 0.00 0.00 49
20260905210648 97 337 12.2 13.0 0.00 0.00 0.00 45
20260905210148 97 330 3.5 6.1 0.00 0.00 0.00 44
20260905205648 97 354 8.7 8.7 0.00 0.00 0.00 44
20260905205147 97 16 5.2 7.8 0.00 0.00 0.00 45
20260905204646 97 6 6.1 9.6 0.00 0.00 0.00 43
20260905204142 97 351 7.0 11.3 0.00 0.00 0.00 44
20260905203636 97 312 6.1 8.7 0.00 0.00 0.00 44
20260905203132 97 109 4.3 9.6 0.00 0.00 0.00 46
20260905202627 97 356 6.1 7.0 0.00 0.00 0.00 44
20260905202122 97 331 8.7 11.3 0.00 0.00 0.00 43
20260905201618 97 4 7.0 8.7 0.00 0.00 0.00 44
20260905201117 97 342 5.2 7.8 0.00 0.00 0.00 45
20260905200613 96 330 5.2 9.6 0.00 0.00 0.00 46
20260905200109 96 340 10.4 12.2 0.00 0.00 0.00 45
20260905195607 98 324 10.4 13.0 0.00 0.00 0.00 44
20260905195103 97 328 9.6 9.6 0.00 0.00 0.00 44
20260905194602 97 338 7.0 12.2 0.00 0.00 0.00 44
20260905194101 97 156 2.6 7.8 0.00 0.00 0.00 44
20260905193556 97 223 4.3 7.0 0.00 0.00 0.00 43
20260905193052 97 322 9.6 9.6 0.00 0.00 0.00 43
20260905192548 97 145 0.0 6.1 0.00 0.00 0.00 44
20260905192044 95 348 4.3 11.3 0.00 0.00 0.00 46
20260905191542 95 319 6.1 7.8 0.00 0.00 0.00 47
20260905191041 96 333 8.7 11.3 0.00 0.00 0.00 47
20260905190540 96 354 6.1 7.8 0.00 0.00 0.00 46
20260905190039 96 344 7.8 13.0 0.00 0.00 0.00 46
20260905185539 98 343 13.9 18.2 0.00 0.00 0.00 44
20260905185038 97 359 3.5 7.0 0.00 0.00 0.00 44
20260905184539 96 204 5.2 8.7 0.00 0.00 0.00 44
20260905184038 96 16 6.1 9.6 0.00 0.00 0.00 46
20260905183537 96 281 4.3 6.1 0.00 0.00 0.00 45
20260905183033 96 13 6.1 13.0 0.00 0.00 0.00 45
20260905182533 96 7 9.6 12.2 0.00 0.00 0.00 45
20260905182033 96 28 7.8 9.6 0.00 0.00 0.00 47
20260905181528 96 346 9.6 9.6 0.00 0.00 0.00 47
20260905181027 95 82 6.1 8.7 0.00 0.00 0.00 48
20260905180527 95 348 7.8 8.7 0.00 0.00 0.00 46
20260905180022 96 354 8.7 11.3 0.00 0.00 0.00 47
20260905175521 95 13 6.1 12.2 0.00 0.00 0.00 46
20260905175017 96 349 8.7 11.3 0.00 0.00 0.00 47
20260905174513 96 304 7.8 9.6 0.00 0.00 0.00 48
20260905174008 96 32 7.0 12.2 0.00 0.00 0.00 46
20260905173504 96 320 5.2 7.0 0.00 0.00 0.00 48
20260905173000 96 330 7.8 9.6 0.00 0.00 0.00 46
20260905172458 96 305 5.2 7.0 0.00 0.00 0.00 47
20260905171954 95 323 5.2 7.0 0.00 0.00 0.00 48
20260905171450 95 339 7.0 7.8 0.00 0.00 0.00 47
20260905170946 95 42 3.5 5.2 0.00 0.00 0.00 48
20260905170442 95 4 6.1 7.0 0.00 0.00 0.00 50
20260905165941 95 40 7.0 8.7 0.00 0.00 0.00 51
20260905165436 94 40 5.2 7.8 0.00 0.00 0.00 50
20260905164932 94 10 7.0 9.6 0.00 0.00 0.00 50
20260905164426 95 21 5.2 8.7 0.00 0.00 0.00 48
20260905163921 94 49 4.3 7.0 0.00 0.00 0.00 48
20260905163418 95 346 4.3 7.8 0.00 0.00 0.00 49
20260905162914 95 340 7.0 7.8 0.00 0.00 0.00 49
20260905162414 95 305 5.2 7.0 0.00 0.00 0.00 49
20260905161908 94 263 1.7 6.1 0.00 0.00 0.00 50
20260905161403 94 164 0.9 5.2 0.00 0.00 0.00 51
20260905160901 94 6 7.0 7.8 0.00 0.00 0.00 51
20260905160354 94 11 6.1 9.6 0.00 0.00 0.00 51
20260905155849 94 318 4.3 5.2 0.00 0.00 0.00 51
20260905155349 94 25 3.5 5.2 0.00 0.00 0.00 51
20260905154848 94 354 3.5 3.5 0.00 0.00 0.00 50
20260905154344 94 220 1.7 2.6 0.00 0.00 0.00 51
20260905153839 93 179 1.7 2.6 0.00 0.00 0.00 52
20260905153336 93 102 2.6 2.6 0.00 0.00 0.00 54
20260905152835 93 339 3.5 5.2 0.00 0.00 0.00 53
20260905152334 93 154 1.7 5.2 0.00 0.00 0.00 53
20260905151829 92 194 2.6 3.5 0.00 0.00 0.00 53
20260905151325 93 76 1.7 3.5 0.00 0.00 0.00 53
20260905150824 92 127 0.0 0.9 0.00 0.00 0.00 54
20260905150319 91 172 1.7 3.5 0.00 0.00 0.00 55
20260905145817 92 324 3.5 6.1 0.00 0.00 0.00 53
20260905145316 91 194 2.6 2.6 0.00 0.00 0.00 55
20260905144815 91 139 1.7 6.1 0.00 0.00 0.00 56
20260905144311 90 245 2.6 6.1 0.00 0.00 0.00 56
20260905143809 91 324 5.2 7.0 0.00 0.00 0.00 56
20260905143304 90 334 4.3 6.1 0.00 0.00 0.00 57
20260905142803 90 274 3.5 3.5 0.00 0.00 0.00 56
20260905142257 90 256 1.7 3.5 0.00 0.00 0.00 58
20260905141754 89 141 0.9 2.6 0.00 0.00 0.00 59
20260905141249 89 200 2.6 5.2 0.00 0.00 0.00 58
20260905140744 89 210 3.5 6.1 0.00 0.00 0.00 58
20260905140239 89 149 0.9 2.6 0.00 0.00 0.00 60
20260905135737 90 137 1.7 5.2 0.00 0.00 0.00 59
20260905135234 89 139 1.7 2.6 0.00 0.00 0.00 59
20260905134733 89 137 0.0 2.6 0.00 0.00 0.00 62
20260905134232 89 228 3.5 5.2 0.00 0.00 0.00 59
20260905133727 89 169 1.7 2.6 0.00 0.00 0.00 58
20260905133223 89 136 0.0 0.9 0.00 0.00 0.00 59
20260905132721 89 154 0.0 1.7 0.00 0.00 0.00 59
20260905132217 88 154 0.0 1.7 0.00 0.00 0.00 59
20260905131712 88 137 0.9 1.7 0.00 0.00 0.00 60
20260905131208 87 135 0.0 0.0 0.00 0.00 0.00 63
20260905130707 86 154 0.0 0.9 0.00 0.00 0.00 63
20260905130202 86 149 0.0 0.9 0.00 0.00 0.00 64
20260905125702 85 150 0.9 0.9 0.00 0.00 0.00 64
20260905125157 85 156 0.9 0.9 0.00 0.00 0.00 64
20260905124654 86 149 0.9 0.9 0.00 0.00 0.00 62
20260905124149 86 135 0.0 0.0 0.00 0.00 0.00 61
20260905123644 85 134 0.0 0.0 0.00 0.00 0.00 63